00433        KC2017 01 09.78013 2324507461  +072604656           12.9 RU     500
00433        KC2017 01 09.78145 2324509425  +072605646           12.7 RU     500
00433        KC2017 01 09.78277 2324511389  +072606635           13.0 RU     500
00433         C2017 01 11.21128 2328245602  +074402752           12.8 wU     500
00433         C2017 01 11.22588 2328267509  +074413802           12.8 wU     500
00433         C2017 01 11.23234 2328277203  +074418692           12.8 wU     500
00433         C2017 01 11.24709 2328299337  +074429858           12.8 wU     500

Station data:
(500) Geocentric.

Orbital elements:  (433)
   Perihelion 2017 Apr 29.669698 +/- 0.154 TT = 16:04:21 (JD 2457873.169698)
Epoch 2017 Jan 11.0 TT = JDT 2457764.5   Earth MOID: 0.1491   Gray
M 299.16053 +/- 0.24
n   0.55985675 +/- 0.00141          Peri.  178.79941 +/- 0.26
a   1.45797954 +/- 0.00244          Node   304.32714 +/- 0.046
e   0.2225747 +/- 0.000133          Incl.   10.82768 +/- 0.0019
P   1.76/643.01d           H 10.3   G  0.15   U  8.3  
q 1.13347014 +/- 0.00207    Q 1.78248895 +/- 0.00277
From 129 observations 2016 Dec. 15-2017 Jan. 11; mean residual 3".4e-04
Residuals in arcseconds: 
161215 500 734µ- 449µ+    161220 500 357µ- 272µ-    161228 500 479µ- 330µ+    
161215 500 720µ+ 250µ-    161221 500 458µ+  74µ+    161228 500  51µ-  34µ+    
161218 500 518µ+  36µ+    161221 500 205µ+ 326µ-    161230 500  84µ+ 275µ-    
161218 500 307µ+ 494µ-    161221 500 534µ- 363µ-    161230 500 8.2µ- 163µ-    
161218 500 493µ+ 434µ-    161221 500 146µ- 138µ+    161230 500 199µ+ 324µ-    
161218 500 422µ- 216µ+    161221 500 123µ+ 424µ-    161230 500 371µ+ 455µ-    
161218 500 512µ-  60µ+    161221 500 602µ+ 116µ-    161230 500 482µ+ 215µ-    
161218 500 632µ- 111µ-    161221 500  17µ+ 200µ-    161230 500 196µ- 176µ+    
161218 500 288µ+  96µ+    161221 500  67µ+ 210µ+    161231 500 105µ+ 379µ+    
161218 500 109µ+ 108µ-    161221 500 235µ- 335µ+    161231 500 151µ+  51µ+    
161218 500 541µ+ 462µ+    161221 500  94µ-  74µ+    161231 500 175µ+ 288µ-    
161218 500 729µ+ 168µ-    161222 500 449µ- 171µ+    170103 500 627µ- 469µ+    
161218 500 240µ+ 364µ-    161222 500 362µ- 117µ-    170103 500 504µ+  86µ+    
161218 500 577µ+ 365µ-    161222 500 770µ-  48µ-    170103 500 810µ- 278µ+    
161218 500  28µ+ 408µ+    161222 500 736µ- 364µ-    170103 500 458µ+ 262µ+    
161218 500  22µ+  36µ-    161222 500 299µ+ 323µ-    170106 500 114µ-  87µ-    
161218 500 207µ+ 309µ-    161222 500 280µ+ 333µ+    170106 500 407µ+ 163µ-    
161219 500 253µ+ 450µ+    161222 500 738µ- 196µ+    170106 500 402µ- 200µ-    
161219 500  19µ+  34µ+    161222 500 734µ- 298µ-    170108 500 248µ+  74µ-    
161219 500 120µ-  80µ+    161222 500 191µ+ 435µ+    170108 500 622µ- 199µ-    
161219 500 209µ- 199µ+    161222 500  66µ+ 412µ-    170108 500  17µ- 329µ-    
161219 500 529µ+ 128µ+    161222 500 147µ- 350µ+    170108 500 227µ- 1.4µ-    
161219 500 359µ- 251µ-    161222 500  48µ-  41µ-    170108 500 309µ+  13µ-    
161219 500 123µ-  34µ+    161222 500  89µ+ 225µ-    170108 500 176µ+ 160µ+    
161219 500  84µ+ 303µ+    161222 500 119µ+  56µ-    170108 500 232µ+ 133µ+    
161219 500 432µ+ 284µ-    161222 500  35µ+  88µ-    170108 500 4.1µ- 367µ+    
161219 500 578µ+  46µ-    161222 500 520µ- 321µ+    170108 500  52µ+ 145µ+    
161219 500 188µ-  51µ-    161222 500 349µ+ 377µ-    170109 500 571µ- 196µ-    
161219 500 543µ- 458µ-    161222 500 177µ+ 454µ-    170109 500 305µ- 271µ-    
161220 500 128µ+ 505µ+    161222 500 460µ+  88µ+    170109 500  75µ- 374µ-    
161220 500 286µ-  67µ+    161222 500 256µ- 344µ+    170109 500  93µ- 374µ-    
161220 500 730µ- 388µ-    161222 500 516µ- 221µ+    170109 500 516µ- 138µ+    
161220 500 294µ+ 142µ+    161222 500 279µ- 189µ-    170109 500 693µ+ 239µ+    
161220 500 652µ-  43µ+    161222 500 239µ-  15µ+    170109 500 462µ- 490µ-    
161220 500 743µ- 154µ+    161222 500 271µ- 112µ+    170109 500 620µ+  70µ-    
161220 500 422µ- 137µ-    161222 500 289µ- 287µ+    170109 500 324µ+ 353µ+    
161220 500 569µ+ 389µ-    161222 500 337µ- 447µ+    170109 500 260µ- 7.1µ-    
161220 500 405µ+ 324µ-    161223 500 557µ+ 137µ-    170109 500 248µ+ 363µ+    
161220 500 294µ- 252µ+    161223 500  75µ- 264µ+    170109 500 733µ+ 275µ-    
161220 500 495µ- 221µ-    161223 500 251µ- 287µ+    170111 500 436µ-  13µ+    
161220 500 499µ- 133µ-    161223 500 456µ- 294µ+    170111 500  21µ- 384µ-    
161220 500 575µ+ 211µ-    161223 500 323µ+ 349µ-    170111 500 599µ+ 136µ-    
161220 500 142µ+ 294µ-    161228 500 401µ+ 235µ+    170111 500 260µ- 422µ+    

Ephemerides (geocentric):
Date (UTC)   RA              Dec         delta   r     elong  mag  LuElo " sig PA
---- -- --  ------------   ------------  ------ ------ -----  ---  ----- ---- ---
2017 03 21  02 59 40.334   +22 00 19.17  1.5609 1.1721  48.6 13.2 133.9   53  94
2017 03 22  03 03 21.468   +22 08 36.53  1.5617 1.1703  48.5 13.2 122.9   55  94
2017 03 23  03 07 03.595   +22 16 38.66  1.5624 1.1685  48.4 13.2 111.7   57  94
2017 03 24  03 10 46.701   +22 24 25.22  1.5632 1.1667  48.2 13.2 100.1   59  94
2017 03 25  03 14 30.771   +22 31 55.87  1.5639 1.1650  48.1 13.2  88.0   61  95
2017 03 26  03 18 15.791   +22 39 10.28  1.5646 1.1633  48.0 13.2  75.6   64  95
2017 03 27  03 22 01.742   +22 46 08.12  1.5653 1.1616  47.8 13.2  62.8   66  95
2017 03 28  03 25 48.605   +22 52 49.05  1.5660 1.1600  47.7 13.2  49.7   69  96
2017 03 29  03 29 36.361   +22 59 12.76  1.5668 1.1585  47.6 13.2  36.4   71  96
2017 03 30  03 33 24.986   +23 05 18.92  1.5675 1.1570  47.5 13.2  23.4   74  96
2017 03 31  03 37 14.457   +23 11 07.21  1.5682 1.1555  47.4 13.2  11.8   76  97
2017 04 01  03 41 04.749   +23 16 37.31  1.5689 1.1541  47.3 13.2  10.5   79  97
2017 04 02  03 44 55.835   +23 21 48.92  1.5696 1.1527  47.1 13.2  21.2   82  97
2017 04 03  03 48 47.688   +23 26 41.72  1.5703 1.1513  47.0 13.2  33.8   85  98
2017 04 04  03 52 40.283   +23 31 15.43  1.5711 1.1501  46.9 13.2  46.5   88  98
2017 04 05  03 56 33.591   +23 35 29.77  1.5718 1.1488  46.8 13.2  59.1   91  98
2017 04 06  04 00 27.585   +23 39 24.45  1.5725 1.1476  46.7 13.2  71.5   94  99
2017 04 07  04 04 22.238   +23 42 59.22  1.5733 1.1465  46.6 13.2  83.7   97  99
2017 04 08  04 08 17.522   +23 46 13.83  1.5740 1.1453  46.5 13.2  95.7  100  99
2017 04 09  04 12 13.408   +23 49 08.04  1.5748 1.1443  46.4 13.2 107.5  103 100